TimeCEST,TemperatureF,Dew PointF,Humidity,Sea Level PressureIn,VisibilityMPH,Wind Direction,Wind SpeedMPH,Gust SpeedMPH,PrecipitationIn,Events,Conditions,WindDirDegrees,DateUTC
12:30 AM,60.8,60.8,100,29.95,2.5,WSW,10.4,-,N/A,Fog,Patches of Fog,240,2012-10-10 22:30:00
1:00 AM,60.8,60.8,100,29.95,3.7,SW,4.6,-,N/A,,Mostly Cloudy,230,2012-10-10 23:00:00
2:00 AM,62,61,96,29.92,4,South,4.6,,,,Partly Cloudy,190,2012-10-11 00:00:00
2:30 AM,60.8,60.8,100,29.92,3.7,SSW,3.5,-,N/A,Fog-Rain,Patches of Fog,200,2012-10-11 00:30:00
2:36 AM,60.8,60.8,100,29.92,0.6,SSW,4.6,-,N/A,Rain,Heavy Rain,210,2012-10-11 00:36:00
3:00 AM,59.0,59.0,100,29.92,0.9,SW,6.9,-,N/A,Rain,Heavy Rain,220,2012-10-11 01:00:00
3:30 AM,59.0,59.0,100,29.92,3.7,SW,5.8,-,N/A,Fog,Patches of Fog,220,2012-10-11 01:30:00
4:00 AM,59.0,59.0,100,29.89,3.7,Variable,2.3,-,N/A,Fog,Patches of Fog,0,2012-10-11 02:00:00
4:08 AM,60.8,60.8,100,29.89,3.7,SSW,4.6,-,N/A,Fog-Rain,Patches of Fog,210,2012-10-11 02:08:00
4:30 AM,60.8,60.8,100,29.89,3.7,WSW,11.5,-,N/A,Rain,Rain,240,2012-10-11 02:30:00
5:00 AM,59.0,59.0,100,29.89,1.9,West,9.2,-,N/A,Fog-Rain,Rain,260,2012-10-11 03:00:00
5:30 AM,59.0,59.0,100,29.89,1.9,West,10.4,-,N/A,Fog-Rain,Rain,260,2012-10-11 03:30:00
6:00 AM,59.0,59.0,100,29.89,1.9,WSW,5.8,-,N/A,Fog,Patches of Fog,250,2012-10-11 04:00:00
6:30 AM,59.0,59.0,100,29.89,0.9,SW,6.9,-,N/A,Fog-Rain,Patches of Fog,230,2012-10-11 04:30:00
7:00 AM,59.0,59.0,100,29.89,1.9,Variable,2.3,-,N/A,Fog-Rain,Patches of Fog,0,2012-10-11 05:00:00
7:30 AM,59.0,59.0,100,29.89,2.5,Variable,2.3,-,N/A,Fog,Patches of Fog,0,2012-10-11 05:30:00
8:00 AM,60,60,100,29.91,1,WSW,3.5,,,Rain,Light Drizzle,240,2012-10-11 06:00:00
8:00 AM,59.0,59.0,100,29.92,0.9,Variable,2.3,-,N/A,Fog,Patches of Fog,0,2012-10-11 06:00:00
8:30 AM,59.0,59.0,100,29.92,1.9,WSW,4.6,-,N/A,Rain,Light Rain,240,2012-10-11 06:30:00
9:00 AM,59.0,59.0,100,29.92,1.9,West,4.6,-,N/A,Rain,Rain,260,2012-10-11 07:00:00
9:30 AM,59.0,59.0,100,29.92,5.6,West,3.5,-,N/A,,Mostly Cloudy,270,2012-10-11 07:30:00
10:00 AM,59.0,59.0,100,29.92,6.2,Variable,2.3,-,N/A,,Mostly Cloudy,0,2012-10-11 08:00:00
10:30 AM,59.0,59.0,100,29.95,6.2,Variable,1.2,-,N/A,,Scattered Clouds,0,2012-10-11 08:30:00
11:00 AM,59.0,59.0,100,29.95,6.2,SW,3.5,-,N/A,,Mostly Cloudy,230,2012-10-11 09:00:00
11:30 AM,60.8,60.8,100,29.95,6.2,WSW,4.6,-,N/A,,Mostly Cloudy,240,2012-10-11 09:30:00
11:52 AM,60.8,60.8,100,29.95,2.5,WSW,6.9,-,N/A,Rain,Light Rain,240,2012-10-11 09:52:00
12:00 PM,59.0,59.0,100,29.95,2.2,WSW,6.9,-,N/A,Rain,Light Rain,250,2012-10-11 10:00:00
12:30 PM,60.8,60.8,100,29.95,5.6,West,8.1,-,N/A,,Scattered Clouds,260,2012-10-11 10:30:00
1:00 PM,60.8,60.8,100,29.98,6.2,West,6.9,-,N/A,,Mostly Cloudy,270,2012-10-11 11:00:00
1:30 PM,60.8,60.8,100,29.98,6.2,West,4.6,-,N/A,,Scattered Clouds,260,2012-10-11 11:30:00
2:00 PM,62,60,90,29.96,12,West,5.8,,,,Partly Cloudy,260,2012-10-11 12:00:00
2:00 PM,60.8,60.8,100,29.98,6.2,West,4.6,-,N/A,,Mostly Cloudy,270,2012-10-11 12:00:00
2:30 PM,60.8,60.8,100,29.95,6.2,West,5.8,-,N/A,,Mostly Cloudy,280,2012-10-11 12:30:00
3:00 PM,64.4,64.4,100,29.95,6.2,West,8.1,-,N/A,,Mostly Cloudy,270,2012-10-11 13:00:00
3:30 PM,60.8,60.8,100,29.95,6.2,NW,5.8,-,N/A,,Scattered Clouds,310,2012-10-11 13:30:00
4:00 PM,60.8,60.8,100,29.95,6.2,WNW,3.5,-,N/A,,Scattered Clouds,290,2012-10-11 14:00:00
4:30 PM,60.8,60.8,100,29.98,6.2,West,9.2,-,N/A,,Scattered Clouds,270,2012-10-11 14:30:00
5:00 PM,60.8,60.8,100,29.98,6.2,WNW,6.9,-,N/A,,Scattered Clouds,290,2012-10-11 15:00:00
5:30 PM,59.0,59.0,100,29.98,6.2,West,8.1,-,N/A,,Scattered Clouds,280,2012-10-11 15:30:00
6:00 PM,59.0,59.0,100,29.98,6.2,West,5.8,-,N/A,,Scattered Clouds,280,2012-10-11 16:00:00
6:30 PM,59.0,59.0,100,29.98,6.2,West,6.9,-,N/A,,Scattered Clouds,280,2012-10-11 16:30:00
7:00 PM,57.2,57.2,100,29.98,6.2,NW,4.6,-,N/A,,Scattered Clouds,310,2012-10-11 17:00:00
7:30 PM,57.2,57.2,100,29.98,6.2,Variable,2.3,-,N/A,,Mostly Cloudy,0,2012-10-11 17:30:00
8:00 PM,59,57,92,30.00,12,WNW,2.3,,,,Overcast,300,2012-10-11 18:00:00
8:00 PM,57.2,57.2,100,30.01,6.2,Variable,2.3,-,N/A,,Mostly Cloudy,0,2012-10-11 18:00:00
8:30 PM,57.2,57.2,100,30.01,6.2,Variable,1.2,-,N/A,,Mostly Cloudy,0,2012-10-11 18:30:00
9:30 PM,57.2,57.2,100,30.01,6.2,WNW,3.5,-,N/A,,Mostly Cloudy,300,2012-10-11 19:30:00
10:30 PM,57.2,57.2,100,30.04,6.2,North,3.5,-,N/A,,Partly Cloudy,350,2012-10-11 20:30:00
11:00 PM,55.4,55.4,100,30.06,6.2,Variable,2.3,-,N/A,,Partly Cloudy,0,2012-10-11 21:00:00
11:30 PM,55.4,55.4,100,30.06,6.2,Variable,2.3,-,N/A,,Partly Cloudy,0,2012-10-11 21:30:00